Location: Frydek-Mistek
(49.6830°N, 18.3330°E)
Time: 18:09:59
(UTC+01:00)

Courier 1B Rocket - All Passes

Search period start: 17 January 2017 00:00
Search period end: 27 January 2017 00:00
Orbit: 920 x 1202 km, 28.2° (Epoch: 15 January)

Date Brightness Start Highest point End Pass type
(mag) Time Alt. Az. Time Alt. Az. Time Alt. Az.
17 Jan - 06:26:38 10° SSW 06:29:44 13° S 06:32:49 10° SSE visible
17 Jan - 08:18:30 10° SSW 08:21:53 13° S 08:25:14 10° SSE daylight
18 Jan - 05:27:08 10° S 05:29:02 11° SSE 05:30:57 10° SSE visible
18 Jan - 07:17:29 10° SSW 07:21:09 14° S 07:24:49 10° SSE daylight
19 Jan - 06:16:52 10° SSW 06:20:26 14° S 06:24:00 10° SSE visible
19 Jan - 08:09:51 10° SSW 08:12:34 12° SSW 08:15:16 10° S daylight
20 Jan - 05:16:43 10° SSW 05:19:43 13° S 05:22:44 10° SSE visible
20 Jan - 07:08:27 10° SSW 07:11:51 13° S 07:15:16 10° SSE daylight
21 Jan - 04:17:30 10° S 04:19:02 11° SSE 04:20:35 10° SSE visible
21 Jan - 06:07:33 10° SSW 06:11:08 14° S 06:14:44 10° SSE visible
21 Jan - 08:03:02 10° SSW 08:03:14 10° SSW 08:03:27 10° SSW daylight
22 Jan - 05:07:04 10° SSW 05:10:25 13° S 05:13:48 10° SSE visible
22 Jan - 06:59:57 10° SSW 07:02:32 12° S 07:05:10 10° S visible
23 Jan - 04:07:06 10° S 04:09:44 12° S 04:12:24 10° SSE visible
23 Jan - 05:58:39 10° SSW 06:01:50 13° S 06:05:04 10° SSE visible
24 Jan - 03:08:49 10° SSE 03:09:05 10° SSE 03:09:22 10° SSE visible
24 Jan - 04:57:52 10° SSW 05:01:08 13° S 05:04:27 10° SSE visible
25 Jan - 03:57:31 10° SSW 04:00:27 13° S 04:03:25 10° SSE visible
25 Jan - 05:50:23 10° SSW 05:52:33 11° S 05:54:44 10° S visible
26 Jan - 02:57:47 10° S 02:59:49 11° S 03:01:52 10° SSE visible
26 Jan - 04:49:09 10° SSW 04:51:52 12° S 04:54:39 10° SSE visible
